Time,TemperatureF,DewpointF,PressureIn,WindDirection,WindDirectionDegrees,WindSpeedMPH,WindSpeedGustMPH,Humidity,HourlyPrecipIn,Conditions,Clouds,dailyrainin,SoftwareType,DateUTC
2013-02-02 00:05:00,27.6,23.4,30.43,South,178,2.3,0.0,84,0.00,CLR,,0.00,WeatherDisplay:10.37,2013-02-02 08:05:00,
2013-02-02 00:10:00,27.9,23.4,30.43,South,178,2.0,2.0,83,0.00,CLR,,0.00,WeatherDisplay:10.37,2013-02-02 08:10:00,
2013-02-02 00:15:00,27.9,23.4,30.43,South,178,2.3,2.3,83,0.00,CLR,,0.00,WeatherDisplay:10.37,2013-02-02 08:15:00,
2013-02-02 00:20:00,27.9,23.4,30.43,South,178,0.0,0.0,83,0.00,CLR,,0.00,WeatherDisplay:10.37,2013-02-02 08:20:00,
2013-02-02 00:25:00,27.9,23.4,30.43,South,178,0.0,0.0,83,0.00,CLR,,0.00,WeatherDisplay:10.37,2013-02-02 08:25:00,
2013-02-02 00:30:00,27.9,23.4,30.43,South,178,0.0,0.0,83,0.00,CLR,,0.00,WeatherDisplay:10.37,2013-02-02 08:30:00,
2013-02-02 00:35:00,27.6,23.1,30.43,South,178,2.0,2.0,83,0.00,CLR,,0.00,WeatherDisplay:10.37,2013-02-02 08:35:00,
2013-02-02 00:40:00,27.5,23.0,30.43,South,178,2.3,2.3,83,0.00,CLR,,0.00,WeatherDisplay:10.37,2013-02-02 08:40:00,
2013-02-02 00:45:00,27.2,22.7,30.44,South,176,0.0,0.0,83,0.00,CLR,,0.00,WeatherDisplay:10.37,2013-02-02 08:45:00,
2013-02-02 00:50:00,27.2,23.0,30.44,South,178,0.0,0.0,84,0.00,CLR,,0.00,WeatherDisplay:10.37,2013-02-02 08:50:00,
2013-02-02 00:55:00,27.0,22.8,30.44,South,178,0.0,0.0,84,0.00,CLR,,0.00,WeatherDisplay:10.37,2013-02-02 08:55:00,
2013-02-02 01:00:00,26.7,22.5,30.44,South,178,0.0,0.0,84,0.00,CLR,,0.00,WeatherDisplay:10.37,2013-02-02 09:00:00,
2013-02-02 01:05:00,26.7,22.5,30.43,South,178,0.0,0.0,84,0.00,CLR,,0.00,WeatherDisplay:10.37,2013-02-02 09:05:00,
2013-02-02 01:10:00,26.3,22.1,30.43,South,178,0.0,0.0,84,0.00,CLR,,0.00,WeatherDisplay:10.37,2013-02-02 09:10:00,
2013-02-02 01:15:00,25.8,21.6,30.43,South,178,1.1,0.0,84,0.00,CLR,,0.00,WeatherDisplay:10.37,2013-02-02 09:15:00,
2013-02-02 01:20:00,25.7,21.5,30.43,South,176,0.0,0.0,84,0.00,CLR,,0.00,WeatherDisplay:10.37,2013-02-02 09:20:00,
2013-02-02 01:25:00,25.7,21.8,30.43,South,178,0.0,0.0,85,0.00,CLR,,0.00,WeatherDisplay:10.37,2013-02-02 09:25:00,
2013-02-02 01:30:00,25.8,21.9,30.43,South,178,2.0,2.0,85,0.00,CLR,,0.00,WeatherDisplay:10.37,2013-02-02 09:30:00,
2013-02-02 01:35:00,26.4,22.5,30.43,South,178,0.0,0.0,85,0.00,CLR,,0.00,WeatherDisplay:10.37,2013-02-02 09:35:00,
2013-02-02 01:40:00,26.4,22.5,30.43,South,178,0.0,0.1,85,0.00,CLR,,0.00,WeatherDisplay:10.37,2013-02-02 09:40:00,
2013-02-02 01:45:00,26.0,21.8,30.43,South,178,0.0,0.0,84,0.00,CLR,,0.00,WeatherDisplay:10.37,2013-02-02 09:45:00,
2013-02-02 01:50:00,25.8,21.6,30.43,South,178,0.0,0.0,84,0.00,CLR,,0.00,WeatherDisplay:10.37,2013-02-02 09:50:00,
2013-02-02 01:55:00,25.7,21.5,30.43,South,178,0.0,0.0,84,0.00,CLR,,0.00,WeatherDisplay:10.37,2013-02-02 09:55:00,
2013-02-02 02:00:00,25.6,21.4,30.44,South,178,0.0,0.0,84,0.00,CLR,,0.00,WeatherDisplay:10.37,2013-02-02 10:00:00,
2013-02-02 02:05:00,25.6,21.4,30.44,South,178,0.0,0.0,84,0.00,CLR,,0.00,WeatherDisplay:10.37,2013-02-02 10:05:00,
2013-02-02 02:10:00,25.3,21.1,30.45,South,178,0.0,0.0,84,0.00,CLR,,0.00,WeatherDisplay:10.37,2013-02-02 10:10:00,
2013-02-02 02:15:00,25.1,20.9,30.45,South,178,0.0,0.0,84,0.00,CLR,,0.00,WeatherDisplay:10.37,2013-02-02 10:15:00,
2013-02-02 02:20:00,25.1,21.2,30.45,South,178,0.0,0.0,85,0.00,CLR,,0.00,WeatherDisplay:10.37,2013-02-02 10:20:00,
2013-02-02 02:25:00,25.1,21.2,30.45,South,176,0.0,0.0,85,0.00,CLR,,0.00,WeatherDisplay:10.37,2013-02-02 10:25:00,
2013-02-02 02:30:00,25.1,21.2,30.45,South,178,0.0,0.0,85,0.00,CLR,,0.00,WeatherDisplay:10.37,2013-02-02 10:30:00,
2013-02-02 02:35:00,25.3,21.4,30.45,South,178,0.0,0.0,85,0.00,CLR,,0.00,WeatherDisplay:10.37,2013-02-02 10:35:00,
2013-02-02 02:40:00,25.8,22.2,30.44,South,178,0.0,0.0,86,0.00,CLR,,0.00,WeatherDisplay:10.37,2013-02-02 10:40:00,
2013-02-02 02:45:00,25.7,21.8,30.44,South,178,0.0,0.0,85,0.00,CLR,,0.00,WeatherDisplay:10.37,2013-02-02 10:45:00,
2013-02-02 02:50:00,25.8,21.9,30.44,South,178,0.0,0.0,85,0.00,CLR,,0.00,WeatherDisplay:10.37,2013-02-02 10:50:00,
2013-02-02 02:55:00,25.0,20.8,30.45,South,178,2.3,0.0,84,0.00,CLR,,0.00,WeatherDisplay:10.37,2013-02-02 10:55:00,
2013-02-02 03:00:00,24.8,20.9,30.44,South,178,2.3,2.3,85,0.00,CLR,,0.00,WeatherDisplay:10.37,2013-02-02 11:00:00,
2013-02-02 03:05:00,24.7,20.6,30.44,South,178,2.3,2.3,84,0.00,CLR,,0.00,WeatherDisplay:10.37,2013-02-02 11:05:00,
2013-02-02 03:10:00,25.0,21.1,30.43,South,178,2.3,0.0,85,0.00,CLR,,0.00,WeatherDisplay:10.37,2013-02-02 11:10:00,
2013-02-02 03:15:00,24.8,20.9,30.43,South,178,0.0,0.0,85,0.00,CLR,,0.00,WeatherDisplay:10.37,2013-02-02 11:15:00,
2013-02-02 03:20:00,24.8,20.9,30.43,South,178,2.0,2.0,85,0.00,CLR,,0.00,WeatherDisplay:10.37,2013-02-02 11:20:00,
2013-02-02 03:25:00,24.5,20.4,30.44,South,178,0.0,0.0,84,0.00,CLR,,0.00,WeatherDisplay:10.37,2013-02-02 11:25:00,
2013-02-02 03:30:00,24.5,20.6,30.44,South,178,1.1,1.1,85,0.00,CLR,,0.00,WeatherDisplay:10.37,2013-02-02 11:30:00,
2013-02-02 03:35:00,24.5,20.6,30.44,South,178,0.0,0.0,85,0.00,CLR,,0.00,WeatherDisplay:10.37,2013-02-02 11:35:00,
2013-02-02 03:40:00,24.5,20.6,30.44,South,178,4.0,4.0,85,0.00,CLR,,0.00,WeatherDisplay:10.37,2013-02-02 11:40:00,
2013-02-02 03:45:00,24.7,20.8,30.44,South,178,1.1,1.1,85,0.00,CLR,,0.00,WeatherDisplay:10.37,2013-02-02 11:45:00,
2013-02-02 03:50:00,24.7,20.8,30.44,South,178,4.0,4.0,85,0.00,CLR,,0.00,WeatherDisplay:10.37,2013-02-02 11:50:00,
2013-02-02 03:55:00,25.3,21.4,30.44,South,178,2.3,2.3,85,0.00,CLR,,0.00,WeatherDisplay:10.37,2013-02-02 11:55:00,
2013-02-02 04:00:00,25.1,20.9,30.44,South,178,1.1,1.1,84,0.00,CLR,,0.00,WeatherDisplay:10.37,2013-02-02 12:00:00,
2013-02-02 04:05:00,24.8,20.7,30.45,South,178,0.0,0.0,84,0.00,CLR,,0.00,WeatherDisplay:10.37,2013-02-02 12:05:00,
2013-02-02 04:10:00,24.5,20.4,30.45,South,178,0.0,0.0,84,0.00,CLR,,0.00,WeatherDisplay:10.37,2013-02-02 12:10:00,
2013-02-02 04:15:00,24.7,20.6,30.45,South,178,0.0,0.0,84,0.00,CLR,,0.00,WeatherDisplay:10.37,2013-02-02 12:15:00,
2013-02-02 04:20:00,24.8,20.9,30.45,South,178,2.3,2.3,85,0.00,CLR,,0.00,WeatherDisplay:10.37,2013-02-02 12:20:00,
2013-02-02 04:25:00,24.5,20.4,30.46,South,178,1.1,0.0,84,0.00,CLR,,0.00,WeatherDisplay:10.37,2013-02-02 12:25:00,
2013-02-02 04:30:00,24.2,20.1,30.45,South,178,0.0,0.0,84,0.00,CLR,,0.00,WeatherDisplay:10.37,2013-02-02 12:30:00,
2013-02-02 04:35:00,24.2,20.1,30.45,South,178,1.1,0.0,84,0.00,CLR,,0.00,WeatherDisplay:10.37,2013-02-02 12:35:00,
2013-02-02 04:40:00,24.4,20.3,30.45,South,178,0.0,0.0,84,0.00,CLR,,0.00,WeatherDisplay:10.37,2013-02-02 12:40:00,
2013-02-02 04:45:00,24.1,20.0,30.45,South,178,0.0,0.0,84,0.00,CLR,,0.00,WeatherDisplay:10.37,2013-02-02 12:45:00,
2013-02-02 04:50:00,23.5,19.1,30.45,South,178,0.0,0.0,83,0.00,CLR,,0.00,WeatherDisplay:10.37,2013-02-02 12:50:00,
2013-02-02 04:55:00,23.5,19.4,30.45,South,178,2.3,0.0,84,0.00,CLR,,0.00,WeatherDisplay:10.37,2013-02-02 12:55:00,
2013-02-02 05:00:00,23.5,19.7,30.45,South,178,0.0,0.0,85,0.00,CLR,,0.00,WeatherDisplay:10.37,2013-02-02 13:00:00,
2013-02-02 05:05:00,23.8,19.9,30.47,South,178,0.0,0.0,85,0.00,CLR,,0.00,WeatherDisplay:10.37,2013-02-02 13:05:00,
2013-02-02 05:10:00,24.1,20.5,30.47,South,178,2.3,2.3,86,0.00,CLR,,0.00,WeatherDisplay:10.37,2013-02-02 13:10:00,
2013-02-02 05:15:00,24.2,20.6,30.47,South,178,1.1,1.1,86,0.00,CLR,,0.00,WeatherDisplay:10.37,2013-02-02 13:15:00,
2013-02-02 05:20:00,24.2,20.3,30.47,South,176,3.0,3.0,85,0.00,CLR,,0.00,WeatherDisplay:10.37,2013-02-02 13:20:00,
2013-02-02 05:25:00,24.2,20.3,30.47,SSE,162,4.6,4.6,85,0.00,CLR,,0.00,WeatherDisplay:10.37,2013-02-02 13:25:00,
2013-02-02 05:30:00,24.4,20.5,30.47,SSE,148,3.5,3.5,85,0.00,CLR,,0.00,WeatherDisplay:10.37,2013-02-02 13:30:00,
2013-02-02 05:35:00,25.1,21.5,30.46,SSE,158,2.3,2.3,86,0.00,CLR,,0.00,WeatherDisplay:10.37,2013-02-02 13:35:00,
2013-02-02 05:40:00,25.3,21.4,30.46,SSE,158,0.0,0.0,85,0.00,CLR,,0.00,WeatherDisplay:10.37,2013-02-02 13:40:00,
2013-02-02 05:45:00,25.4,21.5,30.46,SSE,158,1.0,0.0,85,0.00,CLR,,0.00,WeatherDisplay:10.37,2013-02-02 13:45:00,
2013-02-02 05:50:00,25.6,21.7,30.46,SSE,158,2.3,2.3,85,0.00,CLR,,0.00,WeatherDisplay:10.37,2013-02-02 13:50:00,
2013-02-02 05:55:00,25.4,21.5,30.46,SSE,158,0.0,0.0,85,0.00,CLR,,0.00,WeatherDisplay:10.37,2013-02-02 13:55:00,
2013-02-02 06:00:00,25.3,21.4,30.46,SSE,158,0.0,0.0,85,0.00,CLR,,0.00,WeatherDisplay:10.37,2013-02-02 14:00:00,
2013-02-02 06:05:00,25.3,21.7,30.48,SSE,158,0.0,0.0,86,0.00,CLR,,0.00,WeatherDisplay:10.37,2013-02-02 14:05:00,
2013-02-02 06:10:00,25.3,21.7,30.48,SSE,158,0.0,0.0,86,0.00,CLR,,0.00,WeatherDisplay:10.37,2013-02-02 14:10:00,
2013-02-02 06:15:00,25.7,22.1,30.47,SSE,158,2.0,2.0,86,0.00,CLR,,0.00,WeatherDisplay:10.37,2013-02-02 14:15:00,
2013-02-02 06:20:00,25.6,22.0,30.48,SSE,158,2.3,2.3,86,0.00,CLR,,0.00,WeatherDisplay:10.37,2013-02-02 14:20:00,
2013-02-02 06:25:00,25.3,21.7,30.48,SSE,158,0.0,0.0,86,0.00,CLR,,0.00,WeatherDisplay:10.37,2013-02-02 14:25:00,
2013-02-02 06:30:00,25.0,21.4,30.48,SSE,158,2.0,2.0,86,0.00,CLR,,0.00,WeatherDisplay:10.37,2013-02-02 14:30:00,
2013-02-02 06:35:00,25.1,21.5,30.48,SSE,158,2.3,2.3,86,0.00,CLR,,0.00,WeatherDisplay:10.37,2013-02-02 14:35:00,
2013-02-02 06:40:00,25.4,21.8,30.47,SSE,158,2.3,0.0,86,0.00,CLR,,0.00,WeatherDisplay:10.37,2013-02-02 14:40:00,
2013-02-02 06:45:00,25.3,21.7,30.48,SSE,158,1.1,0.0,86,0.00,CLR,,0.00,WeatherDisplay:10.37,2013-02-02 14:45:00,
2013-02-02 06:50:00,25.4,21.8,30.48,SSE,158,0.0,0.0,86,0.00,CLR,,0.00,WeatherDisplay:10.37,2013-02-02 14:50:00,
2013-02-02 06:55:00,25.4,21.5,30.48,SSE,158,0.0,0.0,85,0.00,CLR,,0.00,WeatherDisplay:10.37,2013-02-02 14:55:00,
2013-02-02 07:00:00,25.4,21.5,30.48,SSE,158,1.0,0.0,85,0.00,CLR,,0.00,WeatherDisplay:10.37,2013-02-02 15:00:00,
2013-02-02 07:05:00,26.0,22.4,30.49,SSE,158,2.3,2.3,86,0.00,CLR,,0.00,WeatherDisplay:10.37,2013-02-02 15:05:00,
2013-02-02 07:10:00,26.3,22.4,30.49,SSE,158,2.3,2.3,85,0.00,CLR,,0.00,WeatherDisplay:10.37,2013-02-02 15:10:00,
2013-02-02 07:15:00,26.0,21.5,30.49,SSE,158,3.5,3.5,83,0.00,CLR,,0.00,WeatherDisplay:10.37,2013-02-02 15:15:00,
2013-02-02 07:20:00,25.7,21.3,30.49,SSE,165,5.8,5.8,83,0.00,CLR,,0.00,WeatherDisplay:10.37,2013-02-02 15:20:00,
2013-02-02 07:25:00,25.6,21.2,30.49,SSW,192,5.8,5.8,83,0.00,CLR,,0.00,WeatherDisplay:10.37,2013-02-02 15:25:00,
2013-02-02 07:30:00,25.6,21.2,30.49,SSW,213,3.5,3.5,83,0.00,CLR,,0.00,WeatherDisplay:10.37,2013-02-02 15:30:00,
2013-02-02 07:35:00,25.6,21.4,30.49,SSW,213,2.3,2.3,84,0.00,CLR,,0.00,WeatherDisplay:10.37,2013-02-02 15:35:00,
2013-02-02 07:40:00,25.6,21.4,30.49,SSW,213,0.0,0.0,84,0.00,CLR,,0.00,WeatherDisplay:10.37,2013-02-02 15:40:00,
2013-02-02 07:45:00,25.4,21.2,30.49,SSW,213,0.0,0.0,84,0.00,CLR,,0.00,WeatherDisplay:10.37,2013-02-02 15:45:00,
2013-02-02 07:50:00,25.4,21.2,30.49,SSW,213,0.0,0.0,84,0.00,CLR,,0.00,WeatherDisplay:10.37,2013-02-02 15:50:00,
2013-02-02 07:55:00,25.6,21.4,30.49,SSW,213,0.0,0.0,84,0.00,CLR,,0.00,WeatherDisplay:10.37,2013-02-02 15:55:00,
2013-02-02 08:00:00,25.8,21.9,30.49,SSW,213,1.1,0.0,85,0.00,CLR,,0.00,WeatherDisplay:10.37,2013-02-02 16:00:00,
2013-02-02 08:05:00,26.0,21.8,30.51,SSW,213,0.0,0.0,84,0.00,CLR,,0.00,WeatherDisplay:10.37,2013-02-02 16:05:00,
2013-02-02 08:10:00,26.1,21.9,30.51,SSW,213,0.0,0.0,84,0.00,CLR,,0.00,WeatherDisplay:10.37,2013-02-02 16:10:00,
2013-02-02 08:15:00,26.3,22.1,30.51,SSW,213,0.0,0.0,84,0.00,CLR,,0.00,WeatherDisplay:10.37,2013-02-02 16:15:00,
2013-02-02 08:20:00,26.4,22.2,30.51,SSW,213,0.0,0.0,84,0.00,CLR,,0.00,WeatherDisplay:10.37,2013-02-02 16:20:00,
2013-02-02 08:25:00,26.6,22.4,30.50,SSW,213,0.0,0.0,84,0.00,CLR,,0.00,WeatherDisplay:10.37,2013-02-02 16:25:00,
2013-02-02 08:30:00,26.9,22.7,30.50,SSW,213,0.0,0.0,84,0.00,CLR,,0.00,WeatherDisplay:10.37,2013-02-02 16:30:00,
2013-02-02 08:35:00,26.9,22.7,30.50,SSW,213,3.5,0.0,84,0.00,CLR,,0.00,WeatherDisplay:10.37,2013-02-02 16:35:00,
2013-02-02 08:40:00,27.2,23.0,30.50,SSW,213,1.1,0.0,84,0.00,CLR,,0.00,WeatherDisplay:10.37,2013-02-02 16:40:00,
2013-02-02 08:45:00,27.6,23.4,30.50,SSW,213,0.0,0.0,84,0.00,CLR,,0.00,WeatherDisplay:10.37,2013-02-02 16:45:00,
2013-02-02 08:50:00,28.4,24.2,30.50,SSW,213,1.1,1.1,84,0.00,CLR,,0.00,WeatherDisplay:10.37,2013-02-02 16:50:00,
2013-02-02 08:55:00,29.0,24.5,30.49,SSW,213,2.3,2.3,83,0.00,CLR,,0.00,WeatherDisplay:10.37,2013-02-02 16:55:00,
2013-02-02 09:00:00,29.5,24.7,30.49,SSW,213,0.0,0.0,82,0.00,CLR,,0.00,WeatherDisplay:10.37,2013-02-02 17:00:00,
2013-02-02 09:05:00,30.0,25.2,30.49,SSW,213,2.0,2.0,82,0.00,CLR,,0.00,WeatherDisplay:10.37,2013-02-02 17:05:00,
2013-02-02 09:10:00,30.4,25.3,30.49,SSW,213,0.0,0.0,81,0.00,CLR,,0.00,WeatherDisplay:10.37,2013-02-02 17:10:00,
2013-02-02 09:15:00,30.9,25.8,30.49,SSW,213,0.0,0.0,81,0.00,CLR,,0.00,WeatherDisplay:10.37,2013-02-02 17:15:00,
2013-02-02 09:20:00,31.6,26.7,30.48,SSW,213,0.0,0.0,82,0.00,CLR,,0.00,WeatherDisplay:10.37,2013-02-02 17:20:00,
2013-02-02 09:25:00,32.4,27.2,30.48,SSW,213,0.0,0.0,81,0.00,CLR,,0.00,WeatherDisplay:10.37,2013-02-02 17:25:00,
2013-02-02 09:30:00,32.8,27.3,30.48,SSW,213,0.0,0.0,80,0.00,CLR,,0.00,WeatherDisplay:10.37,2013-02-02 17:30:00,
2013-02-02 09:35:00,33.2,27.4,30.48,SSW,213,0.0,0.0,79,0.00,CLR,,0.00,WeatherDisplay:10.37,2013-02-02 17:35:00,
2013-02-02 09:40:00,33.5,27.4,30.48,SSW,213,0.0,0.0,78,0.00,CLR,,0.00,WeatherDisplay:10.37,2013-02-02 17:40:00,
2013-02-02 09:45:00,33.8,27.4,30.48,SSW,213,1.0,1.0,77,0.00,CLR,,0.00,WeatherDisplay:10.37,2013-02-02 17:45:00,
2013-02-02 09:50:00,34.1,27.6,30.48,SSW,213,0.0,0.0,77,0.00,CLR,,0.00,WeatherDisplay:10.37,2013-02-02 17:50:00,
2013-02-02 09:55:00,34.6,27.8,30.48,SSW,213,2.3,2.3,76,0.00,CLR,,0.00,WeatherDisplay:10.37,2013-02-02 17:55:00,
2013-02-02 10:00:00,35.0,28.2,30.48,SSW,213,1.0,1.0,76,0.00,CLR,,0.00,WeatherDisplay:10.37,2013-02-02 18:00:00,
2013-02-02 10:05:00,35.6,28.5,30.47,SSW,213,2.3,2.3,75,0.00,CLR,,0.00,WeatherDisplay:10.37,2013-02-02 18:05:00,
2013-02-02 10:10:00,36.2,29.0,30.47,SSW,213,0.0,0.0,75,0.00,CLR,,0.00,WeatherDisplay:10.37,2013-02-02 18:10:00,
2013-02-02 10:15:00,36.8,29.3,30.47,SSW,213,0.0,0.0,74,0.00,CLR,,0.00,WeatherDisplay:10.37,2013-02-02 18:15:00,
2013-02-02 10:20:00,37.2,29.7,30.47,SSW,213,0.0,0.0,74,0.00,CLR,,0.00,WeatherDisplay:10.37,2013-02-02 18:20:00,
2013-02-02 10:25:00,37.5,29.3,30.47,SSW,213,0.0,0.0,72,0.00,CLR,,0.00,WeatherDisplay:10.37,2013-02-02 18:25:00,
2013-02-02 10:30:00,37.9,30.0,30.46,SSW,213,0.0,0.0,73,0.00,CLR,,0.00,WeatherDisplay:10.37,2013-02-02 18:30:00,
2013-02-02 10:35:00,38.3,29.7,30.46,SSW,213,1.0,1.0,71,0.00,CLR,,0.00,WeatherDisplay:10.37,2013-02-02 18:35:00,
2013-02-02 10:40:00,38.6,29.7,30.46,SSW,213,1.0,1.0,70,0.00,CLR,,0.00,WeatherDisplay:10.37,2013-02-02 18:40:00,
2013-02-02 10:45:00,39.3,29.6,30.45,SSW,213,1.1,1.1,68,0.00,CLR,,0.00,WeatherDisplay:10.37,2013-02-02 18:45:00,
2013-02-02 10:50:00,40.1,29.3,30.45,ESE,110,2.3,2.3,65,0.00,CLR,,0.00,WeatherDisplay:10.37,2013-02-02 18:50:00,
2013-02-02 10:55:00,40.6,29.4,30.45,ESE,110,1.1,0.0,64,0.00,CLR,,0.00,WeatherDisplay:10.37,2013-02-02 18:55:00,
2013-02-02 11:00:00,41.1,29.8,30.45,ESE,110,0.0,0.0,64,0.00,CLR,,0.00,WeatherDisplay:10.37,2013-02-02 19:00:00,
2013-02-02 11:05:00,41.5,29.8,30.44,ESE,110,0.0,0.0,63,0.00,CLR,,0.00,WeatherDisplay:10.37,2013-02-02 19:05:00,
2013-02-02 11:10:00,41.6,29.1,30.44,ESE,110,1.1,1.1,61,0.00,CLR,,0.00,WeatherDisplay:10.37,2013-02-02 19:10:00,
2013-02-02 11:15:00,41.9,29.4,30.44,ESE,110,1.1,1.1,61,0.00,CLR,,0.00,WeatherDisplay:10.37,2013-02-02 19:15:00,
2013-02-02 11:20:00,41.9,29.4,30.43,NNE,30,1.0,1.0,61,0.00,CLR,,0.00,WeatherDisplay:10.37,2013-02-02 19:20:00,
2013-02-02 11:25:00,42.2,29.3,30.43,NNE,30,3.5,3.5,60,0.00,CLR,,0.00,WeatherDisplay:10.37,2013-02-02 19:25:00,
2013-02-02 11:30:00,42.5,29.2,30.43,WSW,256,2.3,2.3,59,0.00,CLR,,0.00,WeatherDisplay:10.37,2013-02-02 19:30:00,
2013-02-02 11:35:00,42.6,28.8,30.43,West,267,3.0,3.0,58,0.00,CLR,,0.00,WeatherDisplay:10.37,2013-02-02 19:35:00,
2013-02-02 11:40:00,42.8,28.6,30.43,NW,320,3.0,3.0,57,0.00,CLR,,0.00,WeatherDisplay:10.37,2013-02-02 19:40:00,
2013-02-02 11:45:00,43.3,29.1,30.42,WSW,258,3.5,0.0,57,0.00,CLR,,0.00,WeatherDisplay:10.37,2013-02-02 19:45:00,
2013-02-02 11:50:00,44.1,28.9,30.41,WSW,257,1.1,0.0,55,0.00,CLR,,0.00,WeatherDisplay:10.37,2013-02-02 19:50:00,
2013-02-02 11:55:00,44.1,29.4,30.41,NNW,347,3.5,3.5,56,0.00,CLR,,0.00,WeatherDisplay:10.37,2013-02-02 19:55:00,
2013-02-02 12:00:00,44.1,28.9,30.41,NNW,347,1.1,1.1,55,0.00,CLR,,0.00,WeatherDisplay:10.37,2013-02-02 20:00:00,
2013-02-02 12:05:00,44.1,28.9,30.41,NNW,347,5.0,5.0,55,0.00,CLR,,0.00,WeatherDisplay:10.37,2013-02-02 20:05:00,
2013-02-02 12:10:00,44.1,28.9,30.41,NW,322,6.0,6.0,55,0.00,CLR,,0.00,WeatherDisplay:10.37,2013-02-02 20:10:00,
2013-02-02 12:15:00,44.1,28.9,30.41,NNW,332,4.6,4.6,55,0.00,CLR,,0.00,WeatherDisplay:10.37,2013-02-02 20:15:00,
2013-02-02 12:20:00,44.3,28.7,30.40,NNW,330,3.5,3.5,54,0.00,CLR,,0.00,WeatherDisplay:10.37,2013-02-02 20:20:00,
2013-02-02 12:25:00,44.8,28.7,30.39,NNW,330,1.1,1.1,53,0.00,CLR,,0.00,WeatherDisplay:10.37,2013-02-02 20:25:00,
2013-02-02 12:30:00,45.4,29.3,30.39,West,271,3.0,3.0,53,0.00,CLR,,0.00,WeatherDisplay:10.37,2013-02-02 20:30:00,
2013-02-02 12:35:00,45.5,28.4,30.39,WNW,288,4.6,4.6,51,0.00,CLR,,0.00,WeatherDisplay:10.37,2013-02-02 20:35:00,
2013-02-02 12:40:00,45.8,29.2,30.39,WNW,288,2.3,2.3,52,0.00,CLR,,0.00,WeatherDisplay:10.37,2013-02-02 20:40:00,
2013-02-02 12:45:00,46.2,29.1,30.38,NW,312,3.5,3.5,51,0.00,CLR,,0.00,WeatherDisplay:10.37,2013-02-02 20:45:00,
2013-02-02 12:50:00,46.5,28.8,30.37,NW,319,5.8,5.8,50,0.00,CLR,,0.00,WeatherDisplay:10.37,2013-02-02 20:50:00,
2013-02-02 12:55:00,46.5,29.3,30.37,North,0,4.6,4.6,51,0.00,CLR,,0.00,WeatherDisplay:10.37,2013-02-02 20:55:00,
2013-02-02 13:00:00,46.5,28.8,30.38,NW,315,1.1,1.1,50,0.00,CLR,,0.00,WeatherDisplay:10.37,2013-02-02 21:00:00,
2013-02-02 13:05:00,46.8,29.1,30.37,NNW,346,1.1,1.1,50,0.00,CLR,,0.00,WeatherDisplay:10.37,2013-02-02 21:05:00,
2013-02-02 13:10:00,46.8,28.6,30.37,North,0,2.0,2.0,49,0.00,CLR,,0.00,WeatherDisplay:10.37,2013-02-02 21:10:00,
2013-02-02 13:15:00,46.7,29.0,30.37,North,0,1.1,1.1,50,0.00,CLR,,0.00,WeatherDisplay:10.37,2013-02-02 21:15:00,
2013-02-02 13:20:00,47.1,28.9,30.37,North,357,2.3,2.3,49,0.00,CLR,,0.00,WeatherDisplay:10.37,2013-02-02 21:20:00,
2013-02-02 13:25:00,47.4,28.7,30.37,North,359,0.0,0.0,48,0.00,CLR,,0.00,WeatherDisplay:10.37,2013-02-02 21:25:00,
2013-02-02 13:30:00,48.0,29.2,30.36,NNW,332,4.0,4.0,48,0.00,CLR,,0.00,WeatherDisplay:10.37,2013-02-02 21:30:00,
2013-02-02 13:35:00,48.2,29.4,30.36,North,0,4.6,4.6,48,0.00,CLR,,0.00,WeatherDisplay:10.37,2013-02-02 21:35:00,
2013-02-02 13:40:00,48.3,29.0,30.35,North,0,4.0,4.0,47,0.00,CLR,,0.00,WeatherDisplay:10.37,2013-02-02 21:40:00,
2013-02-02 13:45:00,48.3,29.5,30.35,North,349,2.3,2.3,48,0.00,CLR,,0.00,WeatherDisplay:10.37,2013-02-02 21:45:00,
2013-02-02 13:50:00,48.3,29.0,30.35,NNW,333,3.5,3.5,47,0.00,CLR,,0.00,WeatherDisplay:10.37,2013-02-02 21:50:00,
2013-02-02 13:55:00,48.2,28.9,30.35,WNW,284,3.5,3.5,47,0.00,CLR,,0.00,WeatherDisplay:10.37,2013-02-02 21:55:00,
2013-02-02 14:00:00,48.2,28.9,30.35,WNW,285,1.1,0.0,47,0.00,CLR,,0.00,WeatherDisplay:10.37,2013-02-02 22:00:00,
2013-02-02 14:05:00,48.8,29.4,30.34,WSW,247,0.0,0.0,47,0.00,CLR,,0.00,WeatherDisplay:10.37,2013-02-02 22:05:00,
2013-02-02 14:11:00,49.4,29.5,30.34,SW,226,1.1,0.0,46,0.00,CLR,,0.00,WeatherDisplay:10.37,2013-02-02 22:11:00,
2013-02-02 14:16:00,50.1,29.6,30.34,South,172,2.3,2.3,45,0.00,CLR,,0.00,WeatherDisplay:10.37,2013-02-02 22:16:00,
2013-02-02 14:21:00,50.1,29.6,30.34,ESE,107,3.5,3.5,45,0.00,CLR,,0.00,WeatherDisplay:10.37,2013-02-02 22:21:00,
2013-02-02 14:26:00,49.9,29.9,30.34,ESE,109,3.5,3.5,46,0.00,CLR,,0.00,WeatherDisplay:10.37,2013-02-02 22:26:00,
2013-02-02 14:32:00,49.9,29.9,30.34,ESE,109,3.5,3.5,46,0.00,CLR,,0.00,WeatherDisplay:10.37,2013-02-02 22:32:00,
2013-02-02 14:37:00,50.1,29.6,30.34,ESE,109,2.3,0.0,45,0.00,CLR,,0.00,WeatherDisplay:10.37,2013-02-02 22:37:00,
2013-02-02 14:42:00,50.4,29.8,30.34,ESE,102,3.5,3.5,45,0.00,CLR,,0.00,WeatherDisplay:10.37,2013-02-02 22:42:00,
2013-02-02 14:47:00,50.5,29.9,30.33,ESE,102,3.0,3.0,45,0.00,CLR,,0.00,WeatherDisplay:10.37,2013-02-02 22:47:00,
2013-02-02 14:52:00,50.4,29.8,30.34,ESE,102,2.3,2.3,45,0.00,CLR,,0.00,WeatherDisplay:10.37,2013-02-02 22:52:00,
2013-02-02 14:57:00,50.1,30.1,30.34,ESE,102,1.1,1.1,46,0.00,CLR,,0.00,WeatherDisplay:10.37,2013-02-02 22:57:00,
2013-02-02 15:02:00,49.9,29.9,30.34,ESE,102,3.5,3.5,46,0.00,CLR,,0.00,WeatherDisplay:10.37,2013-02-02 23:02:00,
2013-02-02 15:07:00,49.8,29.8,30.34,ESE,104,1.1,0.0,46,0.00,CLR,,0.00,WeatherDisplay:10.37,2013-02-02 23:07:00,
2013-02-02 15:12:00,49.8,30.4,30.34,ESE,104,1.1,1.1,47,0.00,CLR,,0.00,WeatherDisplay:10.37,2013-02-02 23:12:00,
2013-02-02 15:17:00,49.6,29.6,30.34,ESE,104,2.3,2.3,46,0.00,CLR,,0.00,WeatherDisplay:10.37,2013-02-02 23:17:00,
2013-02-02 15:22:00,49.6,29.6,30.34,ESE,104,3.5,3.5,46,0.00,CLR,,0.00,WeatherDisplay:10.37,2013-02-02 23:22:00,
2013-02-02 15:27:00,49.8,29.8,30.34,ESE,104,0.0,0.0,46,0.00,CLR,,0.00,WeatherDisplay:10.37,2013-02-02 23:27:00,
2013-02-02 15:32:00,49.9,29.9,30.34,ESE,104,1.1,1.1,46,0.00,CLR,,0.00,WeatherDisplay:10.37,2013-02-02 23:32:00,
2013-02-02 15:37:00,49.8,29.8,30.34,ESE,104,2.3,2.3,46,0.00,CLR,,0.00,WeatherDisplay:10.37,2013-02-02 23:37:00,
2013-02-02 15:42:00,49.6,29.6,30.34,ESE,104,2.3,2.3,46,0.00,CLR,,0.00,WeatherDisplay:10.37,2013-02-02 23:42:00,
2013-02-02 15:47:00,49.5,30.1,30.34,ESE,104,1.1,0.0,47,0.00,CLR,,0.00,WeatherDisplay:10.37,2013-02-02 23:47:00,
2013-02-02 15:52:00,49.2,30.3,30.33,East,99,5.8,5.8,48,0.00,CLR,,0.00,WeatherDisplay:10.37,2013-02-02 23:52:00,
2013-02-02 15:57:00,48.9,30.6,30.33,ESE,104,6.0,6.0,49,0.00,CLR,,0.00,WeatherDisplay:10.37,2013-02-02 23:57:00,
2013-02-02 16:02:00,48.5,30.7,30.34,East,97,5.8,5.8,50,0.00,CLR,,0.00,WeatherDisplay:10.37,2013-02-03 00:02:00,
2013-02-02 16:07:00,48.0,30.2,30.34,East,96,4.0,4.0,50,0.00,CLR,,0.00,WeatherDisplay:10.37,2013-02-03 00:07:00,
2013-02-02 16:12:00,47.7,30.4,30.34,East,96,3.5,3.5,51,0.00,CLR,,0.00,WeatherDisplay:10.37,2013-02-03 00:12:00,
2013-02-02 16:17:00,47.6,30.8,30.35,East,96,1.1,0.0,52,0.00,CLR,,0.00,WeatherDisplay:10.37,2013-02-03 00:17:00,
2013-02-02 16:22:00,47.3,31.0,30.35,East,96,2.3,0.0,53,0.00,CLR,,0.00,WeatherDisplay:10.37,2013-02-03 00:22:00,
2013-02-02 16:27:00,47.0,30.7,30.35,East,96,3.0,3.0,53,0.00,CLR,,0.00,WeatherDisplay:10.37,2013-02-03 00:27:00,
2013-02-02 16:32:00,46.7,30.5,30.35,East,96,3.5,3.5,53,0.00,CLR,,0.00,WeatherDisplay:10.37,2013-02-03 00:32:00,
2013-02-02 16:37:00,46.4,30.2,30.34,East,96,2.3,2.3,53,0.00,CLR,,0.00,WeatherDisplay:10.37,2013-02-03 00:37:00,
2013-02-02 16:42:00,46.1,30.4,30.34,East,96,3.5,3.5,54,0.00,CLR,,0.00,WeatherDisplay:10.37,2013-02-03 00:42:00,
2013-02-02 16:47:00,45.7,30.0,30.34,East,99,2.3,2.3,54,0.00,CLR,,0.00,WeatherDisplay:10.37,2013-02-03 00:47:00,
2013-02-02 16:52:00,45.4,30.2,30.35,East,97,2.3,2.3,55,0.00,CLR,,0.00,WeatherDisplay:10.37,2013-02-03 00:52:00,
2013-02-02 16:57:00,44.9,30.1,30.35,East,97,0.0,0.0,56,0.00,CLR,,0.00,WeatherDisplay:10.37,2013-02-03 00:57:00,
2013-02-02 17:02:00,44.8,30.0,30.34,East,97,0.0,0.0,56,0.00,CLR,,0.00,WeatherDisplay:10.37,2013-02-03 01:02:00,
2013-02-02 17:07:00,44.5,29.8,30.34,East,97,0.0,0.0,56,0.00,CLR,,0.00,WeatherDisplay:10.37,2013-02-03 01:07:00,
2013-02-02 17:12:00,44.2,29.9,30.35,East,97,0.0,0.0,57,0.00,CLR,,0.00,WeatherDisplay:10.37,2013-02-03 01:12:00,
2013-02-02 17:17:00,44.1,30.3,30.35,East,97,0.0,0.0,58,0.00,CLR,,0.00,WeatherDisplay:10.37,2013-02-03 01:17:00,
2013-02-02 17:22:00,43.6,30.2,30.34,East,97,0.0,0.0,59,0.00,CLR,,0.00,WeatherDisplay:10.37,2013-02-03 01:22:00,
2013-02-02 17:27:00,43.3,29.9,30.34,East,97,0.0,0.0,59,0.00,CLR,,0.00,WeatherDisplay:10.37,2013-02-03 01:27:00,
2013-02-02 17:32:00,42.8,30.3,30.34,East,97,0.0,0.0,61,0.00,CLR,,0.00,WeatherDisplay:10.37,2013-02-03 01:32:00,
2013-02-02 17:37:00,42.5,30.0,30.34,East,97,0.0,0.0,61,0.00,CLR,,0.00,WeatherDisplay:10.37,2013-02-03 01:37:00,
2013-02-02 17:42:00,42.2,30.1,30.35,East,97,0.0,0.0,62,0.00,CLR,,0.00,WeatherDisplay:10.37,2013-02-03 01:42:00,
2013-02-02 17:47:00,41.8,29.7,30.35,East,97,2.3,2.3,62,0.00,CLR,,0.00,WeatherDisplay:10.37,2013-02-03 01:47:00,
2013-02-02 17:52:00,41.6,29.9,30.34,East,97,1.1,0.0,63,0.00,CLR,,0.00,WeatherDisplay:10.37,2013-02-03 01:52:00,
2013-02-02 17:57:00,41.2,29.5,30.34,East,97,0.0,0.0,63,0.00,CLR,,0.00,WeatherDisplay:10.37,2013-02-03 01:57:00,
2013-02-02 18:02:00,40.9,29.7,30.34,East,97,0.0,0.0,64,0.00,CLR,,0.00,WeatherDisplay:10.37,2013-02-03 02:02:00,
2013-02-02 18:07:00,40.6,29.4,30.34,East,97,0.0,0.0,64,0.00,CLR,,0.00,WeatherDisplay:10.37,2013-02-03 02:07:00,
2013-02-02 18:12:00,40.3,29.5,30.35,East,97,0.0,0.0,65,0.00,CLR,,0.00,WeatherDisplay:10.37,2013-02-03 02:12:00,
2013-02-02 18:17:00,40.1,29.6,30.35,East,97,0.0,0.0,66,0.00,CLR,,0.00,WeatherDisplay:10.37,2013-02-03 02:17:00,
2013-02-02 18:22:00,39.8,29.4,30.34,East,97,0.0,0.0,66,0.00,CLR,,0.00,WeatherDisplay:10.37,2013-02-03 02:22:00,
2013-02-02 18:27:00,39.5,29.4,30.34,East,97,0.0,0.0,67,0.00,CLR,,0.00,WeatherDisplay:10.37,2013-02-03 02:27:00,
2013-02-02 18:32:00,39.2,29.2,30.35,East,97,0.0,0.0,67,0.00,CLR,,0.00,WeatherDisplay:10.37,2013-02-03 02:32:00,
2013-02-02 18:37:00,39.1,29.4,30.35,East,97,0.0,0.0,68,0.00,CLR,,0.00,WeatherDisplay:10.37,2013-02-03 02:37:00,
2013-02-02 18:42:00,38.8,29.1,30.35,East,97,0.0,0.0,68,0.00,CLR,,0.00,WeatherDisplay:10.37,2013-02-03 02:42:00,
2013-02-02 18:47:00,38.6,28.9,30.35,East,97,2.3,2.3,68,0.00,CLR,,0.00,WeatherDisplay:10.37,2013-02-03 02:47:00,
2013-02-02 18:52:00,38.3,28.7,30.36,East,97,2.3,2.3,68,0.00,CLR,,0.00,WeatherDisplay:10.37,2013-02-03 02:52:00,
2013-02-02 18:57:00,38.2,28.9,30.36,East,97,2.3,2.3,69,0.00,CLR,,0.00,WeatherDisplay:10.37,2013-02-03 02:57:00,
2013-02-02 19:02:00,38.0,28.7,30.35,SSE,147,2.3,2.3,69,0.00,CLR,,0.00,WeatherDisplay:10.37,2013-02-03 03:02:00,
2013-02-02 19:07:00,37.9,28.3,30.35,SSE,154,3.5,3.5,68,0.00,CLR,,0.00,WeatherDisplay:10.37,2013-02-03 03:07:00,
2013-02-02 19:12:00,37.8,28.5,30.35,SSE,155,3.5,3.5,69,0.00,CLR,,0.00,WeatherDisplay:10.37,2013-02-03 03:12:00,
2013-02-02 19:17:00,38.0,28.7,30.35,SE,131,4.6,4.6,69,0.00,CLR,,0.00,WeatherDisplay:10.37,2013-02-03 03:17:00,
2013-02-02 19:22:00,38.5,28.9,30.35,SSE,147,4.0,4.0,68,0.00,CLR,,0.00,WeatherDisplay:10.37,2013-02-03 03:22:00,
2013-02-02 19:27:00,38.9,28.9,30.35,SSE,152,4.6,4.6,67,0.00,CLR,,0.00,WeatherDisplay:10.37,2013-02-03 03:27:00,
2013-02-02 19:32:00,39.2,29.2,30.35,SE,131,6.0,6.0,67,0.00,CLR,,0.00,WeatherDisplay:10.37,2013-02-03 03:32:00,
2013-02-02 19:37:00,39.5,29.1,30.34,SE,145,6.9,6.9,66,0.00,CLR,,0.00,WeatherDisplay:10.37,2013-02-03 03:37:00,
2013-02-02 19:42:00,39.5,28.7,30.34,SE,134,4.6,4.6,65,0.00,CLR,,0.00,WeatherDisplay:10.37,2013-02-03 03:42:00,
2013-02-02 19:47:00,39.5,28.7,30.34,SSE,158,6.0,6.0,65,0.00,CLR,,0.00,WeatherDisplay:10.37,2013-02-03 03:47:00,
2013-02-02 19:52:00,39.5,28.7,30.34,SSE,157,5.8,5.8,65,0.00,CLR,,0.00,WeatherDisplay:10.37,2013-02-03 03:52:00,
2013-02-02 19:57:00,39.6,28.8,30.34,SSE,148,4.6,4.6,65,0.00,CLR,,0.00,WeatherDisplay:10.37,2013-02-03 03:57:00,
2013-02-02 20:02:00,39.5,28.7,30.34,SE,141,2.3,2.3,65,0.00,CLR,,0.00,WeatherDisplay:10.37,2013-02-03 04:02:00,
2013-02-02 20:07:00,39.3,28.5,30.33,SE,143,1.1,0.0,65,0.00,CLR,,0.00,WeatherDisplay:10.37,2013-02-03 04:07:00,
2013-02-02 20:12:00,39.2,28.4,30.33,SE,143,0.0,0.0,65,0.00,CLR,,0.00,WeatherDisplay:10.37,2013-02-03 04:12:00,
2013-02-02 20:17:00,38.8,28.4,30.33,SE,143,1.0,0.0,66,0.00,CLR,,0.00,WeatherDisplay:10.37,2013-02-03 04:17:00,
2013-02-02 20:22:00,38.6,28.6,30.33,SE,141,2.3,2.3,67,0.00,CLR,,0.00,WeatherDisplay:10.37,2013-02-03 04:22:00,
2013-02-02 20:27:00,38.5,28.5,30.33,SE,143,2.3,2.3,67,0.00,CLR,,0.00,WeatherDisplay:10.37,2013-02-03 04:27:00,
2013-02-02 20:32:00,38.5,28.5,30.33,SE,143,2.3,2.3,67,0.00,CLR,,0.00,WeatherDisplay:10.37,2013-02-03 04:32:00,
2013-02-02 20:37:00,38.3,28.7,30.33,SE,141,0.0,0.0,68,0.00,CLR,,0.00,WeatherDisplay:10.37,2013-02-03 04:37:00,
2013-02-02 20:42:00,38.0,28.4,30.33,SE,143,1.1,0.0,68,0.00,CLR,,0.00,WeatherDisplay:10.37,2013-02-03 04:42:00,
2013-02-02 20:47:00,38.0,28.4,30.33,SE,143,0.0,0.0,68,0.00,CLR,,0.00,WeatherDisplay:10.37,2013-02-03 04:47:00,
2013-02-02 20:52:00,38.0,28.4,30.33,SE,143,2.3,2.3,68,0.00,CLR,,0.00,WeatherDisplay:10.37,2013-02-03 04:52:00,
2013-02-02 20:57:00,38.2,28.6,30.34,SE,143,2.3,2.3,68,0.00,CLR,,0.00,WeatherDisplay:10.37,2013-02-03 04:57:00,
2013-02-02 21:00:00,38.0,28.4,30.34,SE,143,0.0,2.0,68,0.00,CLR,,0.00,WeatherDisplay:10.37,2013-02-03 05:00:00,
2013-02-02 21:05:00,37.9,28.3,30.32,SE,143,0.0,0.0,68,0.00,CLR,,0.00,WeatherDisplay:10.37,2013-02-03 05:05:00,
2013-02-02 21:07:00,37.9,28.3,30.32,SE,141,0.0,0.0,68,0.00,CLR,,0.00,WeatherDisplay:10.37,2013-02-03 05:07:00,
2013-02-02 21:12:00,37.8,28.2,30.32,SE,141,0.0,0.0,68,0.00,CLR,,0.00,WeatherDisplay:10.37,2013-02-03 05:12:00,
2013-02-02 21:17:00,37.5,28.2,30.32,SE,143,0.0,0.0,69,0.00,CLR,,0.00,WeatherDisplay:10.37,2013-02-03 05:17:00,
2013-02-02 21:22:00,37.2,28.3,30.32,SE,143,0.0,0.0,70,0.00,CLR,,0.00,WeatherDisplay:10.37,2013-02-03 05:22:00,
2013-02-02 21:27:00,37.0,28.1,30.32,SE,143,0.0,0.0,70,0.00,CLR,,0.00,WeatherDisplay:10.37,2013-02-03 05:27:00,
2013-02-02 21:32:00,36.9,28.0,30.32,SE,143,2.3,2.3,70,0.00,CLR,,0.00,WeatherDisplay:10.37,2013-02-03 05:32:00,
2013-02-02 21:37:00,36.8,28.3,30.32,SE,143,1.1,0.0,71,0.00,CLR,,0.00,WeatherDisplay:10.37,2013-02-03 05:37:00,
2013-02-02 21:42:00,36.6,28.1,30.32,SE,143,1.1,1.1,71,0.00,CLR,,0.00,WeatherDisplay:10.37,2013-02-03 05:42:00,
2013-02-02 21:47:00,36.6,28.1,30.33,SE,143,2.3,0.0,71,0.00,CLR,,0.00,WeatherDisplay:10.37,2013-02-03 05:47:00,
2013-02-02 21:52:00,36.5,28.0,30.33,SE,141,0.0,0.0,71,0.00,CLR,,0.00,WeatherDisplay:10.37,2013-02-03 05:52:00,
2013-02-02 21:57:00,36.0,27.5,30.33,SE,143,1.1,0.0,71,0.00,CLR,,0.00,WeatherDisplay:10.37,2013-02-03 05:57:00,
2013-02-02 22:02:00,35.5,27.4,30.31,SE,143,1.1,1.1,72,0.00,CLR,,0.00,WeatherDisplay:10.37,2013-02-03 06:02:00,
2013-02-02 22:07:00,35.2,27.4,30.31,SE,143,0.0,0.0,73,0.00,CLR,,0.00,WeatherDisplay:10.37,2013-02-03 06:07:00,
2013-02-02 22:12:00,35.2,27.4,30.31,SE,143,0.0,0.0,73,0.00,CLR,,0.00,WeatherDisplay:10.37,2013-02-03 06:12:00,
2013-02-02 22:17:00,34.9,27.5,30.31,SE,143,0.0,0.0,74,0.00,CLR,,0.00,WeatherDisplay:10.37,2013-02-03 06:17:00,
2013-02-02 22:22:00,34.6,27.2,30.30,SE,143,2.3,2.3,74,0.00,CLR,,0.00,WeatherDisplay:10.37,2013-02-03 06:22:00,
2013-02-02 22:27:00,34.6,27.5,30.30,SE,143,0.0,0.0,75,0.00,CLR,,0.00,WeatherDisplay:10.37,2013-02-03 06:27:00,
2013-02-02 22:32:00,34.6,27.5,30.30,SE,143,2.3,2.3,75,0.00,CLR,,0.00,WeatherDisplay:10.37,2013-02-03 06:32:00,
2013-02-02 22:37:00,34.4,27.3,30.31,SE,143,0.0,0.0,75,0.00,CLR,,0.00,WeatherDisplay:10.37,2013-02-03 06:37:00,
2013-02-02 22:42:00,34.1,27.0,30.31,SE,141,0.0,0.0,75,0.00,CLR,,0.00,WeatherDisplay:10.37,2013-02-03 06:42:00,
2013-02-02 22:47:00,34.3,27.5,30.31,SE,143,0.0,0.0,76,0.00,CLR,,0.00,WeatherDisplay:10.37,2013-02-03 06:47:00,
2013-02-02 22:52:00,34.3,27.5,30.31,SE,141,0.0,0.0,76,0.00,CLR,,0.00,WeatherDisplay:10.37,2013-02-03 06:52:00,
2013-02-02 22:57:00,34.3,27.5,30.31,SE,143,0.0,0.0,76,0.00,CLR,,0.00,WeatherDisplay:10.37,2013-02-03 06:57:00,
2013-02-02 23:02:00,34.1,27.3,30.30,SE,143,0.0,0.0,76,0.00,CLR,,0.00,WeatherDisplay:10.37,2013-02-03 07:02:00,
2013-02-02 23:07:00,34.0,27.5,30.30,SE,141,0.0,0.0,77,0.00,CLR,,0.00,WeatherDisplay:10.37,2013-02-03 07:07:00,
2013-02-02 23:12:00,34.0,27.2,30.30,SE,141,0.0,0.0,76,0.00,CLR,,0.00,WeatherDisplay:10.37,2013-02-03 07:12:00,
2013-02-02 23:17:00,34.0,27.5,30.30,SE,143,0.0,0.0,77,0.00,CLR,,0.00,WeatherDisplay:10.37,2013-02-03 07:17:00,
2013-02-02 23:22:00,34.1,27.6,30.30,SE,143,0.0,0.0,77,0.00,CLR,,0.00,WeatherDisplay:10.37,2013-02-03 07:22:00,
2013-02-02 23:27:00,34.0,27.2,30.29,South,172,3.5,3.5,76,0.00,CLR,,0.00,WeatherDisplay:10.37,2013-02-03 07:27:00,
2013-02-02 23:32:00,33.8,27.0,30.29,South,181,4.6,4.6,76,0.00,CLR,,0.00,WeatherDisplay:10.37,2013-02-03 07:32:00,
2013-02-02 23:37:00,33.5,27.1,30.29,SE,134,3.5,3.5,77,0.00,CLR,,0.00,WeatherDisplay:10.37,2013-02-03 07:37:00,
2013-02-02 23:42:00,33.7,27.3,30.28,SSE,161,4.0,4.0,77,0.00,CLR,,0.00,WeatherDisplay:10.37,2013-02-03 07:42:00,
2013-02-02 23:47:00,34.3,27.2,30.28,South,171,5.8,5.8,75,0.00,CLR,,0.00,WeatherDisplay:10.37,2013-02-03 07:47:00,
2013-02-02 23:52:00,34.4,27.3,30.28,SSE,155,3.5,3.5,75,0.00,CLR,,0.00,WeatherDisplay:10.37,2013-02-03 07:52:00,
2013-02-02 23:57:00,34.6,27.5,30.28,SSE,164,3.5,3.5,75,0.00,CLR,,0.00,WeatherDisplay:10.37,2013-02-03 07:57:00,